Location: Unspecified
(0.0000°N, 0.0000°E)
Time: 17:22:44
(UTC+00:00)

Hubble Space Telescope - Pass Details

Date: 17 January 2020
Orbit: 536 x 540 km, 28.5° (Epoch: 23 January)

Event Time Altitude Azimuth Distance (km) Brightness Sun altitude
Rises 19:39:44 0° 311° (NW) 2,667 4.7 -20.9°
Reaches altitude 10° 19:42:04 10° 317° (NW) 1,778 3.6 -21.4°
Enters shadow 19:44:45 33° 345° (NNW) 902 1.8 -22.1°
